Location: Buchberg
(46.9333°N, 15.8500°E)
Time: 09:17:56
(UTC+00:00)

Cosmos 1697 Rocket - Pass Details

Date: 14 July 2020
Orbit: 834 x 842 km, 71.0° (Epoch: 07 August)

Event Time Altitude Azimuth Distance (km) Brightness Sun altitude
Rises 00:25:11 0° 335° (NNW) 3,399 6.5 -18.9°
Reaches altitude 10° 00:27:42 10° 340° (NNW) 2,459 5.8 -18.8°
Maximum altitude 00:33:14 56° 58° (ENE) 993 3.3 -18.4°
Drops below altitude 10° 00:38:44 10° 137° (SE) 2,440 4.9 -18.1°
Enters shadow 00:40:43 - 141° (SE) 3,186 5.4 -17.9°
